Location: Newark
(7.0858°N, 171.3717°E)
Time: 15:52:17
(UTC+00:00)

Courier 1B Rocket - Pass Details

Date: 02 December 2020
Orbit: 920 x 1202 km, 28.2° (Epoch: 20 January)

Event Time Altitude Azimuth Distance (km) Brightness Sun altitude
Rises 18:49:29 0° 308° (NW) 4,084 7.6 3.1°
Reaches altitude 10° 18:54:07 10° 332° (NNW) 3,125 7.2 4.2°
Maximum altitude 18:57:57 14° 2° (N) 2,810 7.2 5.1°
Drops below altitude 10° 19:01:44 10° 32° (NNE) 3,095 7.8 5.9°
Sets 19:06:17 0° 56° (NE) 4,018 8.7 7.0°
